Regional Weather Roundup
Issued by NWS State College, PA

Home | Current Version | Previous Version | Text Only | Print | Product List | Glossary On
Versions: 1 2 3 4 5 6 7 8 9 10 11 12 13 14 15 16 17 18 19 20 21 22 23 24 25 26 27 28 29 30 31 32 33 34 35 36 37 38 39 40 41 42 43 44 45 46 47 48 49 50
000
ASUS41 KCTP 251810
RWRCTP

REGIONAL WEATHER ROUNDUP
NATIONAL WEATHER SERVICE STATE COLLEGE PA
200 PM EDT SAT OCT 25 2014

Note: "fair" indicates few or no clouds below 12,000 feet with no
significant weather and/or obstructions to visibility.

* = STATION THAT DOES NOT REPORT PRECIPITATION /E.G. RAIN...SNOW...ETC/
    THUNDER OR FOG.

PAZ002>004-007>009-013>016-020>023-029>032-251900-
WESTERN PENNSYLVANIA

CITY           SKY/WX    TMP DP  RH WIND       PRES   REMARKS
ERIE           CLOUDY    60  51  72 W18G31    29.74F
MEADVILLE      CLOUDY    63  48  58 SW12G21   29.76F
FRANKLIN*      CLOUDY    61  46  59 W15       29.79F
NEW CASTLE       N/A     67  48  50 SW16G23   29.79F
BEAVER COUNTY  CLOUDY    64  48  55 SW9G21    29.82F
BUTLER*        CLOUDY    64  48  55 SW13G22   29.83F
PITTSBURGH INT MOSUNNY   64  48  56 SW20G25   29.82F
PITTSBURGH     MOSUNNY   64  46  52 SW20G28   29.82F
INDIANA*       CLOUDY    61  50  67 SW15G23   29.85F
LATROBE        PTSUNNY   61  52  72 MISG      29.86F
WASHINGTON CO* MOSUNNY   64  48  55 SW16G23   29.87F
$$

PAZ004>006-010>012-017>019-024>028-033>037-041-042-045-046-049>053-251900-
CENTRAL PENNSYLVANIA

CITY           SKY/WX    TMP DP  RH WIND       PRES   REMARKS
BRADFORD       CLOUDY    59  45  59 W10G22    29.74F
DUBOIS         CLOUDY    60  48  64 SW18G29   29.78F
CLEARFIELD     PTSUNNY   62  48  60 SW14G24   29.79F
JOHNSTOWN      PTSUNNY   58  45  62 W21G28    29.84F
ALTOONA        CLOUDY    63  46  54 W18G26    29.82F
STATE COLLEGE  PTSUNNY   64  46  52 W20G30    29.79F
WILLIAMSPORT   SUNNY     68  43  40 W12       29.73F
SELINSGROVE    SUNNY     68  43  40 SW10      29.77F
FT INDIANTOWN  SUNNY     68  43  41 W9G21     29.78F
CAPITAL CITY   SUNNY     67  44  43 SW14      29.80F
HARRISBURG     MOSUNNY   66  43  43 W13       29.79F
YORK           SUNNY     68  42  38 SW12G20   29.81F
$$

PAZ038>040-043-044-047-048-054-055-060>062-067>071-251900-
EASTERN PENNSYLVANIA

CITY           SKY/WX    TMP DP  RH WIND       PRES   REMARKS
SCRANTON       MOSUNNY   63  42  46 SW12G17   29.74F
MOUNT POCONO   MOSUNNY   59  41  51 W14       29.76F
ALLENTOWN      PTSUNNY   67  42  40 W17       29.76F
QUAKERTOWN*    CLEAR     64  45  48 W9        29.78F
READING        SUNNY     68  44  42 SW12G21   29.77F
LANCASTER      SUNNY     66  44  45 W15       29.79F
COATESVILLE    CLEAR     66  46  48 W16       29.80F
POTTSTOWN      MOSUNNY   66  43  43 SW10G20   29.79F
BLUE BELL      SUNNY     68  45  42 W9        29.77F
DOYLESTOWN     MOSUNNY   66  43  43 W15       29.76F
WILLOW GROVE   NOT AVBL
NORTH PHILA    SUNNY     69  40  34 W16G28    29.78F
PHILADELPHIA   MOSUNNY   69  44  40 SW17G28   29.78F
$$



USA.gov is the U.S. government's official web portal to all federal, state and local government web resources and services.